Location: Quebec
(46.8000°N, 71.2500°W)
Time: 05:00:32
(UTC-05:00)

Vanguard 2 Rocket - All Passes

Search period start: 19 February 2018 00:00
Search period end: 01 March 2018 00:00
Orbit: 555 x 3327 km, 32.9° (Epoch: 18 February)

Date Brightness Start Highest point End Pass type
(mag) Time Alt. Az. Time Alt. Az. Time Alt. Az.
19 Feb - 00:55:06 10° WSW 01:10:47 52° S 01:29:52 10° ESE visible
19 Feb - 03:10:05 10° W 03:27:26 45° SSW 03:44:44 10° SE visible
19 Feb - 05:28:25 10° W 05:42:34 25° SW 05:55:10 10° S visible
19 Feb - 21:44:23 10° SSW 21:54:49 32° SE 22:09:38 10° E visible
19 Feb - 23:55:28 10° WSW 00:09:30 49° S 00:28:19 10° ESE visible
20 Feb - 02:09:22 10° W 02:26:01 49° SSW 02:44:29 10° SE visible
20 Feb - 04:26:00 10° W 04:41:56 32° SW 04:56:54 10° SSE visible
20 Feb - 06:52:44 10° WSW 06:55:34 10° SW 06:58:20 10° SW daylight
20 Feb - 20:46:49 10° S 20:55:05 23° SE 21:06:29 10° E visible
20 Feb - 22:56:18 10° SW 23:08:37 45° SSE 23:26:19 10° E visible
21 Feb - 01:09:11 10° WSW 01:24:34 51° S 01:43:35 10° ESE visible
21 Feb - 03:24:30 10° W 03:40:56 39° SSW 03:57:42 10° SSE visible
21 Feb - 05:44:36 10° W 05:55:33 18° SW 06:05:45 10° SSW visible
21 Feb - 19:50:42 10° SSE 19:55:50 14° SE 20:02:08 10° ESE visible
21 Feb - 21:57:40 10° SW 22:08:13 38° SSE 22:23:57 10° E visible
22 Feb - 00:09:27 10° WSW 00:23:17 50° S 00:42:09 10° ESE visible
22 Feb - 02:23:40 10° W 02:39:41 44° SSW 02:57:43 10° SE visible
22 Feb - 04:41:11 10° W 04:55:07 25° SW 05:08:37 10° S visible
22 Feb - 20:59:35 10° SSW 21:08:20 29° SE 21:21:14 10° E visible
22 Feb - 23:10:10 10° WSW 23:22:21 48° SSE 23:40:16 10° ESE visible
23 Feb - 01:23:24 10° WSW 01:38:21 47° SSW 01:57:03 10° SE visible
23 Feb - 03:39:14 10° W 03:54:20 31° SSW 04:10:01 10° SSE visible
23 Feb - 06:04:52 10° WSW 06:08:29 11° SW 06:12:02 10° SW visible
23 Feb - 20:02:18 10° S 20:08:56 20° SE 20:18:03 10° E visible
23 Feb - 22:11:19 10° SW 22:21:50 42° SSE 22:38:02 10° E visible
24 Feb - 00:23:36 10° WSW 00:37:08 49° S 00:55:47 10° ESE visible
24 Feb - 02:38:11 10° W 02:53:17 37° SSW 03:10:28 10° SSE visible
24 Feb - 04:57:33 10° WSW 05:08:14 17° SW 05:18:51 10° SSW visible
24 Feb - 19:07:09 10° SSE 19:09:57 11° SE 19:13:08 10° ESE visible
24 Feb - 21:12:55 10° SSW 21:21:48 35° SSE 21:35:35 10° E visible
24 Feb - 23:24:14 10° WSW 23:36:11 48° S 23:54:02 10° ESE visible
25 Feb - 01:37:47 10° W 01:52:07 42° SSW 02:10:08 10° SE visible
25 Feb - 03:54:34 10° W 04:07:39 24° SW 04:21:26 10° S visible
25 Feb - 20:15:05 10° SSW 20:22:16 26° SE 20:32:54 10° E visible
25 Feb - 22:25:15 10° SW 22:35:37 45° SSE 22:51:57 10° ESE visible
26 Feb - 00:37:54 10° WSW 00:51:00 45° S 01:09:07 10° SE visible
26 Feb - 02:53:02 10° W 03:06:48 30° SSW 03:22:33 10° SSE visible
26 Feb - 05:18:55 10° WSW 05:21:19 10° SW 05:23:45 10° SW visible
26 Feb - 19:18:08 10° S 19:23:09 17° SE 19:29:47 10° ESE visible
26 Feb - 21:26:39 10° SW 21:35:29 39° SSE 21:49:40 10° E visible
26 Feb - 23:38:27 10° WSW 23:50:06 46° S 00:07:35 10° ESE visible
27 Feb - 01:52:23 10° W 02:05:50 35° SSW 02:22:42 10° SSE visible
27 Feb - 04:11:12 10° WSW 04:20:56 16° SW 04:31:12 10° SSW visible
27 Feb - 20:28:28 10° SSW 20:35:49 31° SSE 20:47:18 10° E visible
27 Feb - 22:39:22 10° WSW 22:49:31 45° S 23:05:41 10° ESE visible
28 Feb - 00:52:22 10° W 01:04:52 39° SSW 01:22:03 10° SE visible
28 Feb - 03:08:33 10° WSW 03:20:18 22° SW 03:33:37 10° S visible
28 Feb - 19:30:52 10° SSW 19:36:35 22° SE 19:44:50 10° E visible
28 Feb - 21:40:38 10° SW 21:49:21 41° SSE 22:03:34 10° ESE visible
